Погода в Новосклюихе

Россия / Алтайский край     51°32′36″N   81°24′06″E
темп.,
°C
ветер,
м/с
пор.,
м/с
влажн.,
%
обл.,
%
осадки,
мм/ч
давл.,
гПа
погр.,
м
14 апреля, ср
ср1401:00+1св2493100 0.0 1037150
04:00+1с22885 0.0 103613
07:00−1ссз22945 0.0 103733
10:00+3с22745 0.0 1037436
13:00+7зсз22575 0.0 1035659
16:00+10з234657 0.0 1033977
19:00+10ю2357100 0.0 1031107
22:00+7ююз2369100 0.0 103045
15 апреля, чт
чт1501:00+5юз227163 0.0 103024
04:00+4юз22685 0.0 102818
07:00+3юз22725 0.0 102913
10:00+7з23601 0.0 1028357
13:00+11зсз335520 0.0 10271022
16:00+12с335972 0.0 10251077
19:00+12св235824 0.0 1025954
22:00+9вюв347265 0.0 102579
16 апреля, пт
пт1601:00+7вюв00801 0.0 102410
04:00+6юв11830 0.0 102310
07:00+5ю11830 0.0 102210
10:00+10юз11670 0.0 1021260
13:00+14ююз22500 0.0 1020921
16:00+16юз22400 0.0 10181234
19:00+16ююз12390 0.0 10161181
22:00+12ююв225218 0.0 101612
17 апреля, сб
сб1701:00+10ю2256100 0.0 101411
04:00+9ю1163100 0.0 101310
07:00+7ссв3370100 0.0 101335
10:00+8св5683100 0.0 1014355
13:00+11св446596 0.0 1012551
16:00+13ссв335831 0.0 1012811
19:00+12ссв226287 0.0 1012698
22:00+9ссз24764 0.0 1014233
18 апреля, вс
вс1801:00+6ссз228499 0.0 101538
04:00+6ссв1381100 0.2 1015216
07:00+3ссз4592100 1.4 1017597
10:00+4юз228293 0.4 1017413
13:00+8з345065 0.4 10151459
16:00+10юз244998 0.0 10131479
19:00+9ююв225988 0.1 10121010
22:00+7ююв367797 0.1 1012230